Regional Weather Roundup
Issued by NWS

Home | Current Version | Previous Version | Graphics & Text | Print | Product List | Glossary On
Versions: 1 2 3 4 5 6 7 8 9 10 11 12 13 14 15 16 17 18 19 20 21 22 23 24 25 26 27 28 29 30 31 32 33 34 35 36 37 38 39 40 41 42 43 44 45 46 47 48 49 50
927
ASUS44 KJAN 171610
RWRMS

MISSISSIPPI HOURLY WEATHER ROUNDUP
NATIONAL WEATHER SERVICE JACKSON MS
1000 AM CST WED DEC 17 2014

NOTE: "FAIR: INDICATES FEW OR NO CLOUDS BELOW 12,000 FEET WITH NO
SIGNIFICANT WEATHER AND/OR OBSTRUCTIONS TO VISIBILITY.

MSZ001>002-007>008-010>013-018>021-025>028-034>036-171700-
NORTHWEST MISSISSIPPI

CITY           SKY/WX    TMP DP  RH WIND       PRES   REMARKS
CLARKSDALE     FAIR      37  32  81 N8        30.37S WCI  31
CLEVELAND      FAIR      38  34  84 NE8       30.35S WCI  32
GREENWOOD      CLOUDY    40  35  83 CALM      30.36R
GREENVILLE     PTSUNNY   41  34  76 NE7       30.36R
GRENADA        FAIR      37  34  87 CALM      30.35S
OLIVE BRANCH   PTSUNNY   36  36 100 NE6       30.35R WCI  31
OXFORD         FAIR      36  32  87 N3        30.35S
TUNICA         CLOUDY    36  32  87 N5        30.37S WCI  32
$$

MSZ003>006-009-014>017-022>024-029>033-037>039-171700-
NORTHEAST MISSISSIPPI

CITY           SKY/WX    TMP DP  RH WIND       PRES   REMARKS
COLUMBUS AFB   PTSUNNY   42  37  82 N1        30.32S
CORINTH        CLOUDY    43  34  70 E6        30.32R
GOLDN TRIANGLE SUNNY     43  36  75 N5        30.32R
STARKVILLE     FAIR      41  36  81 CALM      30.32F
TUPELO         CLOUDY    41  34  76 NE6       30.32S
$$

MSZ040-058-171700-
CENTRAL MISSISSIPPI

CITY           SKY/WX    TMP DP  RH WIND       PRES   REMARKS
JACKSON INTL   PTSUNNY   47  39  74 VRB3      30.33R
JACKSON HAWKNS SUNNY     46  38  73 E3        30.33R
MERIDIAN KEY   PTSUNNY   48  37  65 NE10      30.31S
MERIDIAN NAS   PTSUNNY   47  37  68 N7        30.32S
RAYMOND        FAIR      45  39  81 E3        30.34F
VICKSBURG      MOSUNNY   43  36  76 E5        30.34F
$$

MSZ059>079-171700-
SOUTH MISSISSIPPI

CITY           SKY/WX    TMP DP  RH WIND       PRES   REMARKS
HATTIESBURG    SUNNY     48  39  71 CALM      30.33R
MCCOMB         SUNNY     48  38  68 E9        30.31S
NATCHEZ        MOSUNNY   45  37  76 N3        30.33S
PINE BELT      SUNNY     46  36  66 E7        30.33R
$$

MSZ080>082-171700-
COASTAL MISSISSIPPI

CITY           SKY/WX    TMP DP  RH WIND       PRES   REMARKS
BAY ST LOUIS   SUNNY     52  36  54 VRB5      30.32R
BILOXI         MOSUNNY   52  39  60 N6        30.30S
PASCAGOULA     SUNNY     53  38  56 N6        30.30R
GULFPORT       MOSUNNY   53  39  59 VRB7      30.30S
$$



USA.gov is the U.S. government's official web portal to all federal, state and local government web resources and services.